Charlottetown, Prince Edward Island

9:11 AM ADT on June 22, 2017 (GMT -0300)
Charlottetown

Weather History for CYYG - June, 2013

Change the Weather History Date:

Monday, June 24, 2013

  Actual Average Record
Temperature  
Mean Temperature 67 °F -  
Max Temperature 74 °F 73 °F 77 °F (2001)
Min Temperature 60 °F 55 °F 44 °F (2011)
Cooling Degree Days 2    
Growing Degree Days 17 (Base 50)    
Moisture  
Dew Point 63 °F    
Average Humidity 88    
Maximum Humidity 100    
Minimum Humidity 73    
Precipitation  
Precipitation 0.00 in 0.11 in - ()
Sea Level Pressure  
Sea Level Pressure 29.84 in    
Wind  
Wind Speed 8 mph ()    
Max Wind Speed 12 mph    
Max Gust Speed 17 mph    
Visibility 11.2 miles    
Events Rain    
Averages and records for this station are not official NWS values.
T = Trace of Precipitation, MM = Missing Value Source: Averaged Metar Reports

Daily Weather History Graph

Daily Weather History Graph

Search for Another Location

Airport or City:

Trip Planner

Search our weather history database for the weather conditions in past years. The results will help you decide how hot, cold, wet, or windy it might be!

Date:

Astronomy

Jun. 24, 2013 Rise Set
Actual Time 5:21 AM ADT 9:08 PM ADT
Civil Twilight 4:42 AM ADT 9:47 PM ADT
Nautical Twilight 3:49 AM ADT 10:40 PM ADT
Astronomical Twilight 2:34 AM ADT 11:54 PM ADT
Moon 9:59 PM ADT (6/24) 6:49 AM ADT (6/24)
Length of Visible Light 17h 05m
Length of Day
15h 47m
Full, 98% of the Moon is Illuminated
Jun 24
Full
Jun 30
Last Quarter
Jul 8
New
Jul 16
First Quarter
Jul 22
Full

Hourly Weather History & Observations

Time (ADT) Temp. Dew Point Humidity Pressure Visibility Wind Dir Wind Speed Gust Speed Precip Events Conditions
12:00 AM 64.4 °F 62.6 °F 94% 29.96 in 5.0 mi South 6.9 mph - N/A Rain Light Rain Showers
12:33 AM 62.6 °F 62.6 °F 100% 29.94 in 3.0 mi SSE 8.1 mph - N/A   Overcast
1:00 AM 62.6 °F 60.8 °F 94% 29.93 in 6.0 mi SSE 10.4 mph - N/A   Overcast
2:00 AM 62.6 °F 60.8 °F 94% 29.93 in 8.0 mi SSW 6.9 mph - N/A   Overcast
2:38 AM 62.6 °F 60.8 °F 94% 29.91 in 8.0 mi SSW 6.9 mph - N/A   Overcast
3:00 AM 62 °F 60 °F 92% 29.90 in 10 mi WSW 9.2 mph - -   Partly Cloudy
3:00 AM 62.6 °F 60.8 °F 94% 29.90 in 10.0 mi WSW 9.2 mph - N/A   Overcast
4:00 AM 60.8 °F 59.0 °F 94% 29.89 in 7.0 mi SW 10.4 mph - N/A   Overcast
5:00 AM 60.8 °F 59.0 °F 94% 29.88 in 4.0 mi SW 10.4 mph 17.3 mph N/A   Overcast
6:00 AM 60.8 °F 60.8 °F 100% 29.88 in 3.0 mi SW 11.5 mph - N/A   Overcast
7:00 AM 60.8 °F 60.8 °F 100% 29.87 in 5.0 mi SW 9.2 mph - N/A   Overcast
8:00 AM 62.6 °F 60.8 °F 94% 29.87 in - SW 11.5 mph - N/A   Overcast
9:00 AM 63 °F 61 °F 91% 29.88 in 10 mi WSW 10.4 mph - -   Overcast
9:00 AM 62.6 °F 60.8 °F 94% 29.88 in 10.0 mi WSW 10.4 mph - N/A   Overcast
10:00 AM 64.4 °F 60.8 °F 88% 29.85 in 12.0 mi SW 10.4 mph - N/A   Overcast
11:00 AM 68.0 °F 62.6 °F 83% 29.83 in 15.0 mi SW 8.1 mph - N/A   Overcast
11:29 AM 68.0 °F 64.4 °F 88% 29.83 in 15.0 mi WSW 9.2 mph - N/A   Overcast
12:00 PM 68.0 °F 64.4 °F 88% 29.82 in 15.0 mi SW 9.2 mph - N/A   Mostly Cloudy
1:00 PM 69.8 °F 64.4 °F 83% 29.83 in 15.0 mi SW 9.2 mph - N/A   Mostly Cloudy
2:00 PM 71.6 °F 66.2 °F 83% 29.81 in 15.0 mi SW 8.1 mph - N/A   Mostly Cloudy
3:00 PM 73.4 °F 66.2 °F 78% 29.79 in 15.0 mi SW 9.2 mph - N/A   Mostly Cloudy
4:00 PM 73.4 °F 66.2 °F 78% 29.78 in 15.0 mi WSW 11.5 mph 17.3 mph N/A   Mostly Cloudy
5:00 PM 73.4 °F 66.2 °F 78% 29.75 in 15.0 mi SSW 11.5 mph - N/A   Mostly Cloudy
6:00 PM 73.4 °F 66.2 °F 78% 29.74 in 15.0 mi SW 10.4 mph - N/A   Mostly Cloudy
7:00 PM 75.2 °F 66.2 °F 73% 29.73 in 15.0 mi SW 8.1 mph - N/A   Mostly Cloudy
8:00 PM 71.6 °F 66.2 °F 83% 29.73 in 15.0 mi South 5.8 mph - N/A   Mostly Cloudy
9:00 PM 70 °F 65 °F 79% 29.74 in 15 mi SSW 6.9 mph - -   Scattered Clouds
9:00 PM 69.8 °F 64.4 °F 83% 29.73 in 15.0 mi SSW 8.1 mph - N/A   Mostly Cloudy
10:00 PM 69.8 °F 62.6 °F 78% 29.74 in 15.0 mi SW 8.1 mph - N/A   Mostly Cloudy
11:00 PM 69.8 °F 64.4 °F 83% 29.74 in 15.0 mi SW 8.1 mph - N/A   Mostly Cloudy